Flag for Canada Weather past 2 weeks in Saint-Jérôme, Quebec, Canada

Now
73 °F

Mostly cloudy.


Feels Like: 73 °F
Forecast: 57 / 75 °F
Wind: 10 mph from Southwest

Location: Montreal / Mirabel

Current Time: Jul 8, 2015 at 12:28:53 AM

Latest Report: Jul 7, 2015 at 11:00 PM


Visibility: 20 mi

Pressure: 29.75 "Hg

Humidity: 83%

Dew point: 68 °F

Location of Saint-JérômeLocation

Historic Weather in Saint-Jérôme — Graph

°F

Saint-Jérôme temperature yesterday

Maximum temperature yesterday: 82 °F (at 3:00 PM)
Minimum temperature yesterday: 63 °F (at 2:00 AM)
Average temperature yesterday: 73 °F

Past Weeks' High & Low Weather Summary

 TemperatureHumidityPressure
High82 °F (Jul 7, 3:00 PM)100% (Jun 23, 11:00 AM)30.19 "Hg (Jun 23, 11:00 AM)
Low50 °F (Jun 25, 5:00 AM)35% (Jun 25, 3:00 PM)29.51 "Hg (Jun 23, 2:00 PM)
Average64 °F76%29.92 "Hg
* Reported Jun 22 10:00 PM — Jul 7 10:00 PM, Saint-Jérôme, Weather by CustomWeather, © 2015

Note: Actual official high and low records may vary slightly from our data, if they occured in-between our weather recording intervals... More about our weather records

Advertising

Saint-Jérôme weather history for previous 24 hours

 ConditionsComfort  
Time TempWeatherWind HumidityBarometerVisibility
10:00 PM
Tue, Jul 7
73 °FSprinkles. Mostly cloudy.5 mph83%29.77 "Hg12 mi
9:00 PM77 °FMore clouds than sun.6 mph69%29.75 "Hg12 mi
8:00 PM79 °FHigh level clouds.8 mph65%29.77 "Hg12 mi
7:00 PM81 °FPartly sunny.8 mph62%29.78 "Hg20 mi
6:00 PM82 °FBroken clouds.7 mph66%29.79 "Hg25 mi
5:00 PM82 °FBroken clouds.7 mph66%29.80 "Hg25 mi
4:00 PM82 °FBroken clouds.10 mph70%29.81 "Hg20 mi
3:00 PM82 °FPartly sunny.14 mph70%29.82 "Hg20 mi
2:00 PM81 °FPartly sunny.8 mph74%29.84 "Hg20 mi
1:00 PM81 °FBroken clouds.7 mph79%29.87 "Hg20 mi
12:00 PM77 °FPartly sunny.6 mph83%29.88 "Hg15 mi
11:00 AM75 °FScattered showers. Mostly cloudy.5 mph83%29.91 "Hg12 mi
10:00 AM75 °FScattered showers. Mostly cloudy.2 mph83%29.92 "Hg15 mi
9:00 AM73 °FPartly sunny.No wind83%29.94 "Hg12 mi
8:00 AM70 °FBroken clouds.5 mph83%29.95 "Hg12 mi
7:00 AM66 °FMostly cloudy.3 mph88%29.97 "Hg25 mi
6:00 AM66 °FPassing clouds.2 mph88%29.97 "Hg25 mi
5:00 AM66 °FPartly cloudy.2 mph88%29.95 "Hg25 mi
4:00 AM64 °FPartly cloudy.No wind94%29.97 "Hg25 mi
3:00 AM63 °FPassing clouds.5 mph94%29.98 "Hg25 mi
2:00 AM63 °FPassing clouds.2 mph94%29.98 "Hg25 mi
1:00 AM64 °FClear.2 mph88%29.99 "Hg25 mi
12:00 AM66 °FPassing clouds.No wind83%30.00 "Hg25 mi
Weather by CustomWeather, © 2015

See weather overviewHow to use our weather pages